Regional Weather Roundup
Issued by NWS

Home | Current Version | Previous Version | Graphics & Text | Print | Product List | Glossary On
Versions: 1 2 3 4 5 6 7 8 9 10 11 12 13 14 15 16 17 18 19 20 21 22 23 24 25 26 27 28 29 30 31 32 33 34 35 36 37 38 39 40 41 42 43 44 45 46 47 48 49 50
000
ASUS43 KFSD 240110
RWRSD

WEATHER ROUNDUP FOR SOUTH DAKOTA
NATIONAL WEATHER SERVICE SIOUX FALLS SD
800 PM CDT SAT SEP 23 2017

NOTE: "FAIR" INDICATES FEW OR NO CLOUDS BELOW 12,000 FEET WITH NO
SIGNIFICANT WEATHER AND/OR OBSTRUCTIONS TO VISIBILITY.


SDZ001>005-009-010-012>017-240200-
NORTHWEST AND NORTH CENTRAL SOUTH DAKOTA

CITY           SKY/WX    TMP DP  RH WIND       PRES   REMARKS
BUFFALO          N/A     45  44  97 N13       29.99F
FAITH            N/A     47  47 100 N14       30.01F
MOBRIDGE       LGT RAIN  53  51  93 N14G25    29.89F
$$

SDZ012>016-024>037-041>051-057-063-072>074-240200-
SOUTHWEST AND SOUTH CENTRAL SOUTH DAKOTA

CITY           SKY/WX    TMP DP  RH WIND       PRES   REMARKS
RAPID CTY ARPT LGT RAIN  46  45  93 N10       30.05R FOG
PIERRE         LGT RAIN  51  49  92 NE5       29.98R
CUSTER         CLOUDY    41  38  89 CALM      30.02S
ELLSWORTH AFB  LGT RAIN  46  46 100 N10       30.03
PHILIP         LGT RAIN  50  50 100 N7        30.01R FOG
PINE RIDGE     LGT RAIN  47  46  97 N6        30.02R FOG
SPEARFISH      MOCLDY    43  43 100 NE7       30.05F FOG
WINNER         RAIN      54  52  93 N8        29.96F
$$

SDZ004>011-016>023-039-040-240200-
NORTHEAST SOUTH DAKOTA

CITY           SKY/WX    TMP DP  RH WIND       PRES   REMARKS
ABERDEEN       LGT RAIN  53  53 100 NE15      29.93F
WATERTOWN      LGT RAIN  53  53 100 N13       29.93F FOG
BROOKINGS      CLOUDY    57  55  93 NE6       29.92R
SISSETON         N/A     56  54  93 N7        29.99S
$$

SDZ017-020-022-023-036>040-048>070-240200-
SOUTHEAST SOUTH DAKOTA

CITY           SKY/WX    TMP DP  RH WIND       PRES   REMARKS
SIOUX FALLS    CLOUDY    67  64  90 E12       29.87S
HURON          HVY RAIN  54  54 100 NE13      29.90F FOG
CHAMBERLAIN    RAIN      54  54 100 N5        29.96S
MITCHELL       RAIN      57  56  96 N8        29.93F FOG
YANKTON        CLOUDY    63  60  90 NW15      29.89R
$$

ABBREVIATIONS USED IN REMARKS
   TC - TEMPERATURE IN CELSIUS
  WCI - WIND CHILL INDEX
   HX - HEAT INDEX
  VSB - VISIBILITY




USA.gov is the U.S. government's official web portal to all federal, state and local government web resources and services.